owner,sensor,date,latitude,longitude,air_temperature,qcFlag 
DISL,ioos:station:DISL:KATA:1,2013-03-01T00:00:00Z,30.2583,-88.2131,12.1,1111122 
DISL,ioos:station:DISL:KATA:1,2013-03-01T00:30:00Z,30.2583,-88.2131,11.63,1111122 
DISL,ioos:station:DISL:KATA:1,2013-03-01T01:00:00Z,30.2583,-88.2131,11.22,1111122 
DISL,ioos:station:DISL:KATA:1,2013-03-01T01:30:00Z,30.2583,-88.2131,10.95,1111122 
DISL,ioos:station:DISL:KATA:1,2013-03-01T02:00:00Z,30.2583,-88.2131,10.81,1111122 
DISL,ioos:station:DISL:KATA:1,2013-03-01T02:30:00Z,30.2583,-88.2131,10.85,1111122 
DISL,ioos:station:DISL:KATA:1,2013-03-01T03:00:00Z,30.2583,-88.2131,10.88,1111122 
DISL,ioos:station:DISL:KATA:1,2013-03-01T03:30:00Z,30.2583,-88.2131,10.78,1111122 
DISL,ioos:station:DISL:KATA:1,2013-03-01T04:00:00Z,30.2583,-88.2131,10.85,1111122 
DISL,ioos:station:DISL:KATA:1,2013-03-01T04:30:00Z,30.2583,-88.2131,10.81,1111122 
DISL,ioos:station:DISL:KATA:1,2013-03-01T05:00:00Z,30.2583,-88.2131,10.48,1111122 
DISL,ioos:station:DISL:KATA:1,2013-03-01T05:30:00Z,30.2583,-88.2131,10.41,1111122 
DISL,ioos:station:DISL:KATA:1,2013-03-01T06:00:00Z,30.2583,-88.2131,9.86,1111122 
DISL,ioos:station:DISL:KATA:1,2013-03-01T06:30:00Z,30.2583,-88.2131,9.46,1111122 
DISL,ioos:station:DISL:KATA:1,2013-03-01T07:00:00Z,30.2583,-88.2131,9.16,1111122 
DISL,ioos:station:DISL:KATA:1,2013-03-01T07:30:00Z,30.2583,-88.2131,9.1,1111122 
DISL,ioos:station:DISL:KATA:1,2013-03-01T08:00:00Z,30.2583,-88.2131,8.83,1111122 
DISL,ioos:station:DISL:KATA:1,2013-03-01T08:30:00Z,30.2583,-88.2131,8.66,1111122 
DISL,ioos:station:DISL:KATA:1,2013-03-01T09:00:00Z,30.2583,-88.2131,8.32,1111122 
DISL,ioos:station:DISL:KATA:1,2013-03-01T09:30:00Z,30.2583,-88.2131,8.12,1111122 
DISL,ioos:station:DISL:KATA:1,2013-03-01T10:00:00Z,30.2583,-88.2131,7.98,1111122 
DISL,ioos:station:DISL:KATA:1,2013-03-01T10:30:00Z,30.2583,-88.2131,7.98,1111122 
DISL,ioos:station:DISL:KATA:1,2013-03-01T11:00:00Z,30.2583,-88.2131,7.881,1111122 
DISL,ioos:station:DISL:KATA:1,2013-03-01T11:30:00Z,30.2583,-88.2131,7.713,1111122 
DISL,ioos:station:DISL:KATA:1,2013-03-01T12:00:00Z,30.2583,-88.2131,7.614,1111122 
DISL,ioos:station:DISL:KATA:1,2013-03-01T12:30:00Z,30.2583,-88.2131,7.512,1111122 
DISL,ioos:station:DISL:KATA:1,2013-03-01T13:00:00Z,30.2583,-88.2131,7.444,1111122 
DISL,ioos:station:DISL:KATA:1,2013-03-01T13:30:00Z,30.2583,-88.2131,7.648,1111122 
DISL,ioos:station:DISL:KATA:1,2013-03-01T14:00:00Z,30.2583,-88.2131,7.613,1111122 
DISL,ioos:station:DISL:KATA:1,2013-03-01T14:30:00Z,30.2583,-88.2131,8.32,1111122 
DISL,ioos:station:DISL:KATA:1,2013-03-01T15:00:00Z,30.2583,-88.2131,8.59,1111122 
DISL,ioos:station:DISL:KATA:1,2013-03-01T15:30:00Z,30.2583,-88.2131,9.3,1111122 
DISL,ioos:station:DISL:KATA:1,2013-03-01T16:00:00Z,30.2583,-88.2131,9.32,1111122 
DISL,ioos:station:DISL:KATA:1,2013-03-01T16:30:00Z,30.2583,-88.2131,9.59,1111122 
DISL,ioos:station:DISL:KATA:1,2013-03-01T17:00:00Z,30.2583,-88.2131,9.32,1111122 
DISL,ioos:station:DISL:KATA:1,2013-03-01T17:30:00Z,30.2583,-88.2131,9.42,1111122 
DISL,ioos:station:DISL:KATA:1,2013-03-01T18:00:00Z,30.2583,-88.2131,9.79,1111122 
DISL,ioos:station:DISL:KATA:1,2013-03-01T18:30:00Z,30.2583,-88.2131,10.13,1111122 
DISL,ioos:station:DISL:KATA:1,2013-03-01T19:00:00Z,30.2583,-88.2131,10.61,1111122 
DISL,ioos:station:DISL:KATA:1,2013-03-01T19:30:00Z,30.2583,-88.2131,10.81,1111122 
DISL,ioos:station:DISL:KATA:1,2013-03-01T20:00:00Z,30.2583,-88.2131,11.05,1111122 
DISL,ioos:station:DISL:KATA:1,2013-03-01T20:30:00Z,30.2583,-88.2131,11.59,1111122 
DISL,ioos:station:DISL:KATA:1,2013-03-01T21:00:00Z,30.2583,-88.2131,11.73,1111122 
DISL,ioos:station:DISL:KATA:1,2013-03-01T21:30:00Z,30.2583,-88.2131,12.06,1111122 
DISL,ioos:station:DISL:KATA:1,2013-03-01T22:00:00Z,30.2583,-88.2131,12.23,1111122 
DISL,ioos:station:DISL:KATA:1,2013-03-01T22:30:00Z,30.2583,-88.2131,12.64,1111122 
DISL,ioos:station:DISL:KATA:1,2013-03-01T23:00:00Z,30.2583,-88.2131,12.88,1111122 
DISL,ioos:station:DISL:KATA:1,2013-03-01T23:30:00Z,30.2583,-88.2131,13.22,1111122 
DISL,ioos:station:DISL:KATA:1,2013-03-02T00:00:00Z,30.2583,-88.2131,13.49,1111122 
DISL,ioos:station:DISL:KATA:1,2013-03-02T00:30:00Z,30.2583,-88.2131,13.22,1111122 
DISL,ioos:station:DISL:KATA:1,2013-03-02T01:00:00Z,30.2583,-88.2131,12.85,1111122 
DISL,ioos:station:DISL:KATA:1,2013-03-02T01:30:00Z,30.2583,-88.2131,12.44,1111122 
DISL,ioos:station:DISL:KATA:1,2013-03-02T02:00:00Z,30.2583,-88.2131,11.97,1111122 
DISL,ioos:station:DISL:KATA:1,2013-03-02T02:30:00Z,30.2583,-88.2131,11.26,1111122 
DISL,ioos:station:DISL:KATA:1,2013-03-02T03:00:00Z,30.2583,-88.2131,10.64,1111122 
DISL,ioos:station:DISL:KATA:1,2013-03-02T03:30:00Z,30.2583,-88.2131,9.97,1111122 
DISL,ioos:station:DISL:KATA:1,2013-03-02T04:00:00Z,30.2583,-88.2131,9.19,1111122 
DISL,ioos:station:DISL:KATA:1,2013-03-02T04:30:00Z,30.2583,-88.2131,8.08,1111122 
DISL,ioos:station:DISL:KATA:1,2013-03-02T05:00:00Z,30.2583,-88.2131,7.844,1111122 
DISL,ioos:station:DISL:KATA:1,2013-03-02T05:30:00Z,30.2583,-88.2131,7.267,1111122 
DISL,ioos:station:DISL:KATA:1,2013-03-02T06:00:00Z,30.2583,-88.2131,6.731,1111122 
DISL,ioos:station:DISL:KATA:1,2013-03-02T06:30:00Z,30.2583,-88.2131,6.532,1111122 
DISL,ioos:station:DISL:KATA:1,2013-03-02T07:00:00Z,30.2583,-88.2131,6.128,1111122 
DISL,ioos:station:DISL:KATA:1,2013-03-02T07:30:00Z,30.2583,-88.2131,5.856,1111122 
DISL,ioos:station:DISL:KATA:1,2013-03-02T08:00:00Z,30.2583,-88.2131,5.72,1111122 
DISL,ioos:station:DISL:KATA:1,2013-03-02T08:30:00Z,30.2583,-88.2131,5.754,1111122 
DISL,ioos:station:DISL:KATA:1,2013-03-02T09:00:00Z,30.2583,-88.2131,5.449,1111122 
DISL,ioos:station:DISL:KATA:1,2013-03-02T09:30:00Z,30.2583,-88.2131,5.012,1111122 
DISL,ioos:station:DISL:KATA:1,2013-03-02T10:00:00Z,30.2583,-88.2131,4.708,1111122 
DISL,ioos:station:DISL:KATA:1,2013-03-02T10:30:00Z,30.2583,-88.2131,4.64,1111122 
DISL,ioos:station:DISL:KATA:1,2013-03-02T11:00:00Z,30.2583,-88.2131,4.301,1111122 
DISL,ioos:station:DISL:KATA:1,2013-03-02T11:30:00Z,30.2583,-88.2131,4.442,1111122 
DISL,ioos:station:DISL:KATA:1,2013-03-02T12:00:00Z,30.2583,-88.2131,4.342,1111122 
DISL,ioos:station:DISL:KATA:1,2013-03-02T12:30:00Z,30.2583,-88.2131,4.24,1111122 
DISL,ioos:station:DISL:KATA:1,2013-03-02T13:00:00Z,30.2583,-88.2131,4.274,1111122 
DISL,ioos:station:DISL:KATA:1,2013-03-02T13:30:00Z,30.2583,-88.2131,4.335,1111122 
DISL,ioos:station:DISL:KATA:1,2013-03-02T14:00:00Z,30.2583,-88.2131,4.364,1111122 
DISL,ioos:station:DISL:KATA:1,2013-03-02T14:30:00Z,30.2583,-88.2131,4.633,1111122 
DISL,ioos:station:DISL:KATA:1,2013-03-02T15:00:00Z,30.2583,-88.2131,4.905,1111122 
DISL,ioos:station:DISL:KATA:1,2013-03-02T15:30:00Z,30.2583,-88.2131,5.577,1111122 
DISL,ioos:station:DISL:KATA:1,2013-03-02T16:00:00Z,30.2583,-88.2131,5.47,1111122 
DISL,ioos:station:DISL:KATA:1,2013-03-02T16:30:00Z,30.2583,-88.2131,5.908,1111122 
DISL,ioos:station:DISL:KATA:1,2013-03-02T17:00:00Z,30.2583,-88.2131,6.452,1111122 
DISL,ioos:station:DISL:KATA:1,2013-03-02T17:30:00Z,30.2583,-88.2131,6.791,1111122 
DISL,ioos:station:DISL:KATA:1,2013-03-02T18:00:00Z,30.2583,-88.2131,7.433,1111122 
DISL,ioos:station:DISL:KATA:1,2013-03-02T18:30:00Z,30.2583,-88.2131,7.57,1111122 
DISL,ioos:station:DISL:KATA:1,2013-03-02T19:00:00Z,30.2583,-88.2131,7.943,1111122 
DISL,ioos:station:DISL:KATA:1,2013-03-02T19:30:00Z,30.2583,-88.2131,8.11,1111122 
DISL,ioos:station:DISL:KATA:1,2013-03-02T20:00:00Z,30.2583,-88.2131,7.673,1111122 
DISL,ioos:station:DISL:KATA:1,2013-03-02T20:30:00Z,30.2583,-88.2131,7.776,1111122 
DISL,ioos:station:DISL:KATA:1,2013-03-02T21:00:00Z,30.2583,-88.2131,7.674,1111122 
DISL,ioos:station:DISL:KATA:1,2013-03-02T21:30:00Z,30.2583,-88.2131,7.538,1111122 
DISL,ioos:station:DISL:KATA:1,2013-03-02T22:00:00Z,30.2583,-88.2131,7.165,1111122 
DISL,ioos:station:DISL:KATA:1,2013-03-02T22:30:00Z,30.2583,-88.2131,6.894,1111122 
DISL,ioos:station:DISL:KATA:1,2013-03-02T23:00:00Z,30.2583,-88.2131,6.458,1111122 
DISL,ioos:station:DISL:KATA:1,2013-03-02T23:30:00Z,30.2583,-88.2131,6.121,1111122 
DISL,ioos:station:DISL:KATA:1,2013-03-03T00:00:00Z,30.2583,-88.2131,6.365,1111122 
DISL,ioos:station:DISL:KATA:1,2013-03-03T00:30:00Z,30.2583,-88.2131,5.55,1111122 
DISL,ioos:station:DISL:KATA:1,2013-03-03T01:00:00Z,30.2583,-88.2131,5.754,1111122 
DISL,ioos:station:DISL:KATA:1,2013-03-03T01:30:00Z,30.2583,-88.2131,5.143,1111122 
DISL,ioos:station:DISL:KATA:1,2013-03-03T02:00:00Z,30.2583,-88.2131,5.075,1111122 
DISL,ioos:station:DISL:KATA:1,2013-03-03T02:30:00Z,30.2583,-88.2131,5.075,1111122 
DISL,ioos:station:DISL:KATA:1,2013-03-03T03:00:00Z,30.2583,-88.2131,5.179,1111122 
DISL,ioos:station:DISL:KATA:1,2013-03-03T03:30:00Z,30.2583,-88.2131,4.877,1111122 
DISL,ioos:station:DISL:KATA:1,2013-03-03T04:00:00Z,30.2583,-88.2131,4.81,1111122 
DISL,ioos:station:DISL:KATA:1,2013-03-03T04:30:00Z,30.2583,-88.2131,4.471,1111122 
DISL,ioos:station:DISL:KATA:1,2013-03-03T05:00:00Z,30.2583,-88.2131,4.3,1111122 
DISL,ioos:station:DISL:KATA:1,2013-03-03T05:30:00Z,30.2583,-88.2131,4.366,1111122 
DISL,ioos:station:DISL:KATA:1,2013-03-03T06:00:00Z,30.2583,-88.2131,4.233,1111122 
DISL,ioos:station:DISL:KATA:1,2013-03-03T06:30:00Z,30.2583,-88.2131,3.997,1111122 
DISL,ioos:station:DISL:KATA:1,2013-03-03T07:00:00Z,30.2583,-88.2131,3.83,1111122 
DISL,ioos:station:DISL:KATA:1,2013-03-03T07:30:00Z,30.2583,-88.2131,3.561,1111122 
DISL,ioos:station:DISL:KATA:1,2013-03-03T08:00:00Z,30.2583,-88.2131,3.595,1111122 
DISL,ioos:station:DISL:KATA:1,2013-03-03T08:30:00Z,30.2583,-88.2131,3.391,1111122 
DISL,ioos:station:DISL:KATA:1,2013-03-03T09:00:00Z,30.2583,-88.2131,3.187,1111122 
DISL,ioos:station:DISL:KATA:1,2013-03-03T09:30:00Z,30.2583,-88.2131,2.881,1111122 
DISL,ioos:station:DISL:KATA:1,2013-03-03T10:00:00Z,30.2583,-88.2131,2.848,1111122 
DISL,ioos:station:DISL:KATA:1,2013-03-03T10:30:00Z,30.2583,-88.2131,2.65,1111122 
DISL,ioos:station:DISL:KATA:1,2013-03-03T11:00:00Z,30.2583,-88.2131,2.583,1111122 
DISL,ioos:station:DISL:KATA:1,2013-03-03T11:30:00Z,30.2583,-88.2131,2.481,1111122 
DISL,ioos:station:DISL:KATA:1,2013-03-03T12:00:00Z,30.2583,-88.2131,2.583,1111122 
DISL,ioos:station:DISL:KATA:1,2013-03-03T12:30:00Z,30.2583,-88.2131,2.447,1111122 
DISL,ioos:station:DISL:KATA:1,2013-03-03T13:00:00Z,30.2583,-88.2131,2.209,1111122 
DISL,ioos:station:DISL:KATA:1,2013-03-03T13:30:00Z,30.2583,-88.2131,1.798,1111122 
DISL,ioos:station:DISL:KATA:1,2013-03-03T14:00:00Z,30.2583,-88.2131,1.726,1111122 
DISL,ioos:station:DISL:KATA:1,2013-03-03T14:30:00Z,30.2583,-88.2131,1.964,1111122 
DISL,ioos:station:DISL:KATA:1,2013-03-03T15:00:00Z,30.2583,-88.2131,2.236,1111122 
DISL,ioos:station:DISL:KATA:1,2013-03-03T15:30:00Z,30.2583,-88.2131,2.635,1111122 
DISL,ioos:station:DISL:KATA:1,2013-03-03T16:00:00Z,30.2583,-88.2131,3.042,1111122 
DISL,ioos:station:DISL:KATA:1,2013-03-03T16:30:00Z,30.2583,-88.2131,3.377,1111122 
DISL,ioos:station:DISL:KATA:1,2013-03-03T17:00:00Z,30.2583,-88.2131,3.954,1111122 
DISL,ioos:station:DISL:KATA:1,2013-03-03T17:30:00Z,30.2583,-88.2131,4.63,1111122 
DISL,ioos:station:DISL:KATA:1,2013-03-03T18:00:00Z,30.2583,-88.2131,5.339,1111122 
DISL,ioos:station:DISL:KATA:1,2013-03-03T18:30:00Z,30.2583,-88.2131,5.977,1111122 
DISL,ioos:station:DISL:KATA:1,2013-03-03T19:00:00Z,30.2583,-88.2131,6.418,1111122 
DISL,ioos:station:DISL:KATA:1,2013-03-03T19:30:00Z,30.2583,-88.2131,7.233,1111122 
DISL,ioos:station:DISL:KATA:1,2013-03-03T20:00:00Z,30.2583,-88.2131,7.708,1111122 
DISL,ioos:station:DISL:KATA:1,2013-03-03T20:30:00Z,30.2583,-88.2131,8.15,1111122 
DISL,ioos:station:DISL:KATA:1,2013-03-03T21:00:00Z,30.2583,-88.2131,8.62,1111122 
DISL,ioos:station:DISL:KATA:1,2013-03-03T21:30:00Z,30.2583,-88.2131,8.73,1111122 
DISL,ioos:station:DISL:KATA:1,2013-03-03T22:00:00Z,30.2583,-88.2131,8.93,1111122 
DISL,ioos:station:DISL:KATA:1,2013-03-03T22:30:00Z,30.2583,-88.2131,9.33,1111122 
DISL,ioos:station:DISL:KATA:1,2013-03-03T23:00:00Z,30.2583,-88.2131,9.66,1111122 
DISL,ioos:station:DISL:KATA:1,2013-03-03T23:30:00Z,30.2583,-88.2131,9.8,1111122 
DISL,ioos:station:DISL:KATA:1,2013-03-04T00:00:00Z,30.2583,-88.2131,9.76,1111122 
DISL,ioos:station:DISL:KATA:1,2013-03-04T00:30:00Z,30.2583,-88.2131,9.84,1111122 
DISL,ioos:station:DISL:KATA:1,2013-03-04T01:00:00Z,30.2583,-88.2131,10.22,1111122 
DISL,ioos:station:DISL:KATA:1,2013-03-04T01:30:00Z,30.2583,-88.2131,10.39,1111122 
DISL,ioos:station:DISL:KATA:1,2013-03-04T02:00:00Z,30.2583,-88.2131,10.66,1111122 
DISL,ioos:station:DISL:KATA:1,2013-03-04T02:30:00Z,30.2583,-88.2131,10.83,1111122 
DISL,ioos:station:DISL:KATA:1,2013-03-04T03:00:00Z,30.2583,-88.2131,10.93,1111122 
DISL,ioos:station:DISL:KATA:1,2013-03-04T03:30:00Z,30.2583,-88.2131,10.99,1111122 
DISL,ioos:station:DISL:KATA:1,2013-03-04T04:00:00Z,30.2583,-88.2131,11.12,1111122 
DISL,ioos:station:DISL:KATA:1,2013-03-04T04:30:00Z,30.2583,-88.2131,11.15,1111122 
DISL,ioos:station:DISL:KATA:1,2013-03-04T05:00:00Z,30.2583,-88.2131,11.12,1111122 
DISL,ioos:station:DISL:KATA:1,2013-03-04T05:30:00Z,30.2583,-88.2131,11.12,1111122 
DISL,ioos:station:DISL:KATA:1,2013-03-04T06:00:00Z,30.2583,-88.2131,11.15,1111122 
DISL,ioos:station:DISL:KATA:1,2013-03-04T06:30:00Z,30.2583,-88.2131,11.16,1111122 
DISL,ioos:station:DISL:KATA:1,2013-03-04T07:00:00Z,30.2583,-88.2131,11.09,1111122 
DISL,ioos:station:DISL:KATA:1,2013-03-04T07:30:00Z,30.2583,-88.2131,10.96,1111122 
DISL,ioos:station:DISL:KATA:1,2013-03-04T08:00:00Z,30.2583,-88.2131,10.93,1111122 
DISL,ioos:station:DISL:KATA:1,2013-03-04T08:30:00Z,30.2583,-88.2131,11.06,1111122 
DISL,ioos:station:DISL:KATA:1,2013-03-04T09:00:00Z,30.2583,-88.2131,11.09,1111122 
DISL,ioos:station:DISL:KATA:1,2013-03-04T09:30:00Z,30.2583,-88.2131,11.12,1111122 
DISL,ioos:station:DISL:KATA:1,2013-03-04T10:00:00Z,30.2583,-88.2131,11.29,1111122 
DISL,ioos:station:DISL:KATA:1,2013-03-04T10:30:00Z,30.2583,-88.2131,11.19,1111122 
DISL,ioos:station:DISL:KATA:1,2013-03-04T11:00:00Z,30.2583,-88.2131,10.99,1111122 
DISL,ioos:station:DISL:KATA:1,2013-03-04T11:30:00Z,30.2583,-88.2131,11.27,1111122 
DISL,ioos:station:DISL:KATA:1,2013-03-04T12:00:00Z,30.2583,-88.2131,11.1,1111122 
DISL,ioos:station:DISL:KATA:1,2013-03-04T12:30:00Z,30.2583,-88.2131,11.41,1111122 
DISL,ioos:station:DISL:KATA:1,2013-03-04T13:00:00Z,30.2583,-88.2131,10.31,1111122 
DISL,ioos:station:DISL:KATA:1,2013-03-04T13:30:00Z,30.2583,-88.2131,10.88,1111122 
DISL,ioos:station:DISL:KATA:1,2013-03-04T14:00:00Z,30.2583,-88.2131,11.28,1111122 
DISL,ioos:station:DISL:KATA:1,2013-03-04T14:30:00Z,30.2583,-88.2131,11.55,1111122 
DISL,ioos:station:DISL:KATA:1,2013-03-04T15:00:00Z,30.2583,-88.2131,11.92,1111122 
DISL,ioos:station:DISL:KATA:1,2013-03-04T15:30:00Z,30.2583,-88.2131,12.43,1111122 
DISL,ioos:station:DISL:KATA:1,2013-03-04T16:00:00Z,30.2583,-88.2131,12.56,1111122 
DISL,ioos:station:DISL:KATA:1,2013-03-04T16:30:00Z,30.2583,-88.2131,12.75,1111122 
DISL,ioos:station:DISL:KATA:1,2013-03-04T17:00:00Z,30.2583,-88.2131,13.02,1111122 
DISL,ioos:station:DISL:KATA:1,2013-03-04T17:30:00Z,30.2583,-88.2131,13.19,1111122 
DISL,ioos:station:DISL:KATA:1,2013-03-04T18:00:00Z,30.2583,-88.2131,13.46,1111122 
DISL,ioos:station:DISL:KATA:1,2013-03-04T18:30:00Z,30.2583,-88.2131,14.04,1111122 
DISL,ioos:station:DISL:KATA:1,2013-03-04T19:00:00Z,30.2583,-88.2131,14.14,1111122 
DISL,ioos:station:DISL:KATA:1,2013-03-04T19:30:00Z,30.2583,-88.2131,14.34,1111122 
DISL,ioos:station:DISL:KATA:1,2013-03-04T20:00:00Z,30.2583,-88.2131,14.44,1111122 
DISL,ioos:station:DISL:KATA:1,2013-03-04T20:30:00Z,30.2583,-88.2131,14.65,1111122 
DISL,ioos:station:DISL:KATA:1,2013-03-04T21:00:00Z,30.2583,-88.2131,14.75,1111122 
DISL,ioos:station:DISL:KATA:1,2013-03-04T21:30:00Z,30.2583,-88.2131,14.89,1111122 
DISL,ioos:station:DISL:KATA:1,2013-03-04T22:00:00Z,30.2583,-88.2131,15.13,1111122 
DISL,ioos:station:DISL:KATA:1,2013-03-04T22:30:00Z,30.2583,-88.2131,15.13,1111122 
DISL,ioos:station:DISL:KATA:1,2013-03-04T23:00:00Z,30.2583,-88.2131,15.3,1111122 
DISL,ioos:station:DISL:KATA:1,2013-03-04T23:30:00Z,30.2583,-88.2131,15.2,1111122 
DISL,ioos:station:DISL:KATA:1,2013-03-05T00:00:00Z,30.2583,-88.2131,15.1,1111122 
DISL,ioos:station:DISL:KATA:1,2013-03-05T00:30:00Z,30.2583,-88.2131,15.45,1111122 
DISL,ioos:station:DISL:KATA:1,2013-03-05T01:00:00Z,30.2583,-88.2131,15.41,1111122 
DISL,ioos:station:DISL:KATA:1,2013-03-05T01:30:00Z,30.2583,-88.2131,15.11,1111122 
DISL,ioos:station:DISL:KATA:1,2013-03-05T02:00:00Z,30.2583,-88.2131,15.34,1111122 
DISL,ioos:station:DISL:KATA:1,2013-03-05T02:30:00Z,30.2583,-88.2131,15.31,1111122 
DISL,ioos:station:DISL:KATA:1,2013-03-05T03:00:00Z,30.2583,-88.2131,15.79,1111122 
DISL,ioos:station:DISL:KATA:1,2013-03-05T03:30:00Z,30.2583,-88.2131,15.72,1111122 
DISL,ioos:station:DISL:KATA:1,2013-03-05T04:00:00Z,30.2583,-88.2131,15.72,1111122 
DISL,ioos:station:DISL:KATA:1,2013-03-05T04:30:00Z,30.2583,-88.2131,15.68,1111122 
DISL,ioos:station:DISL:KATA:1,2013-03-05T05:00:00Z,30.2583,-88.2131,15.68,1111122 
DISL,ioos:station:DISL:KATA:1,2013-03-05T05:30:00Z,30.2583,-88.2131,15.45,1111122 
DISL,ioos:station:DISL:KATA:1,2013-03-05T06:00:00Z,30.2583,-88.2131,15.62,1111122 
DISL,ioos:station:DISL:KATA:1,2013-03-05T06:30:00Z,30.2583,-88.2131,15.62,1111122 
DISL,ioos:station:DISL:KATA:1,2013-03-05T07:00:00Z,30.2583,-88.2131,16.02,1111122 
DISL,ioos:station:DISL:KATA:1,2013-03-05T07:30:00Z,30.2583,-88.2131,15.92,1111122 
DISL,ioos:station:DISL:KATA:1,2013-03-05T08:00:00Z,30.2583,-88.2131,15.92,1111122 
DISL,ioos:station:DISL:KATA:1,2013-03-05T08:30:00Z,30.2583,-88.2131,15.72,1111122 
DISL,ioos:station:DISL:KATA:1,2013-03-05T09:00:00Z,30.2583,-88.2131,15.72,1111122 
DISL,ioos:station:DISL:KATA:1,2013-03-05T09:30:00Z,30.2583,-88.2131,15.92,1111122 
DISL,ioos:station:DISL:KATA:1,2013-03-05T10:00:00Z,30.2583,-88.2131,15.92,1111122 
DISL,ioos:station:DISL:KATA:1,2013-03-05T10:30:00Z,30.2583,-88.2131,16.02,1111122 
DISL,ioos:station:DISL:KATA:1,2013-03-05T11:00:00Z,30.2583,-88.2131,15.82,1111122 
DISL,ioos:station:DISL:KATA:1,2013-03-05T11:30:00Z,30.2583,-88.2131,15.28,1111122 
DISL,ioos:station:DISL:KATA:1,2013-03-05T12:00:00Z,30.2583,-88.2131,14.63,1111122 
DISL,ioos:station:DISL:KATA:1,2013-03-05T12:30:00Z,30.2583,-88.2131,15.21,1111122 
DISL,ioos:station:DISL:KATA:1,2013-03-05T13:00:00Z,30.2583,-88.2131,15.51,1111122 
DISL,ioos:station:DISL:KATA:1,2013-03-05T13:30:00Z,30.2583,-88.2131,15.51,1111122 
DISL,ioos:station:DISL:KATA:1,2013-03-05T14:00:00Z,30.2583,-88.2131,15.51,1111122 
DISL,ioos:station:DISL:KATA:1,2013-03-05T14:30:00Z,30.2583,-88.2131,14.7,1111122 
DISL,ioos:station:DISL:KATA:1,2013-03-05T15:00:00Z,30.2583,-88.2131,15.04,1111122 
DISL,ioos:station:DISL:KATA:1,2013-03-05T15:30:00Z,30.2583,-88.2131,16.21,1111122 
DISL,ioos:station:DISL:KATA:1,2013-03-05T16:00:00Z,30.2583,-88.2131,16.41,1111122 
DISL,ioos:station:DISL:KATA:1,2013-03-05T16:30:00Z,30.2583,-88.2131,16.72,1111122 
DISL,ioos:station:DISL:KATA:1,2013-03-05T17:00:00Z,30.2583,-88.2131,16.57,1111122 
DISL,ioos:station:DISL:KATA:1,2013-03-05T17:30:00Z,30.2583,-88.2131,16.54,1111122 
DISL,ioos:station:DISL:KATA:1,2013-03-05T18:00:00Z,30.2583,-88.2131,16.91,1111122 
DISL,ioos:station:DISL:KATA:1,2013-03-05T18:30:00Z,30.2583,-88.2131,17.15,1111122 
DISL,ioos:station:DISL:KATA:1,2013-03-05T19:00:00Z,30.2583,-88.2131,17.22,1111122 
DISL,ioos:station:DISL:KATA:1,2013-03-05T19:30:00Z,30.2583,-88.2131,17.19,1111122 
DISL,ioos:station:DISL:KATA:1,2013-03-05T20:00:00Z,30.2583,-88.2131,16.92,1111122 
DISL,ioos:station:DISL:KATA:1,2013-03-05T20:30:00Z,30.2583,-88.2131,17.43,1111122 
DISL,ioos:station:DISL:KATA:1,2013-03-05T21:00:00Z,30.2583,-88.2131,17.09,1111122 
DISL,ioos:station:DISL:KATA:1,2013-03-05T21:30:00Z,30.2583,-88.2131,17.33,1111122 
DISL,ioos:station:DISL:KATA:1,2013-03-05T22:00:00Z,30.2583,-88.2131,17.39,1111122 
DISL,ioos:station:DISL:KATA:1,2013-03-05T22:30:00Z,30.2583,-88.2131,17.23,1111122 
DISL,ioos:station:DISL:KATA:1,2013-03-05T23:00:00Z,30.2583,-88.2131,17.09,1111122 
DISL,ioos:station:DISL:KATA:1,2013-03-05T23:30:00Z,30.2583,-88.2131,16.68,1111122 
DISL,ioos:station:DISL:KATA:1,2013-03-06T00:00:00Z,30.2583,-88.2131,15.97,1111122 
DISL,ioos:station:DISL:KATA:1,2013-03-06T00:30:00Z,30.2583,-88.2131,16.14,1111122 
DISL,ioos:station:DISL:KATA:1,2013-03-06T01:00:00Z,30.2583,-88.2131,17.2,1111122 
DISL,ioos:station:DISL:KATA:1,2013-03-06T01:30:00Z,30.2583,-88.2131,16.48,1111122 
DISL,ioos:station:DISL:KATA:1,2013-03-06T02:00:00Z,30.2583,-88.2131,15.64,1111122 
DISL,ioos:station:DISL:KATA:1,2013-03-06T02:30:00Z,30.2583,-88.2131,15.17,1111122 
DISL,ioos:station:DISL:KATA:1,2013-03-06T03:00:00Z,30.2583,-88.2131,14.77,1111122 
DISL,ioos:station:DISL:KATA:1,2013-03-06T03:30:00Z,30.2583,-88.2131,14.02,1111122 
DISL,ioos:station:DISL:KATA:1,2013-03-06T04:00:00Z,30.2583,-88.2131,13.25,1111122 
DISL,ioos:station:DISL:KATA:1,2013-03-06T04:30:00Z,30.2583,-88.2131,12.88,1111122 
DISL,ioos:station:DISL:KATA:1,2013-03-06T05:00:00Z,30.2583,-88.2131,12.54,1111122 
DISL,ioos:station:DISL:KATA:1,2013-03-06T05:30:00Z,30.2583,-88.2131,12.27,1111122 
DISL,ioos:station:DISL:KATA:1,2013-03-06T06:00:00Z,30.2583,-88.2131,11.83,1111122 
DISL,ioos:station:DISL:KATA:1,2013-03-06T06:30:00Z,30.2583,-88.2131,11.73,1111122 
DISL,ioos:station:DISL:KATA:1,2013-03-06T07:00:00Z,30.2583,-88.2131,11.6,1111122 
DISL,ioos:station:DISL:KATA:1,2013-03-06T07:30:00Z,30.2583,-88.2131,11.6,1111122 
DISL,ioos:station:DISL:KATA:1,2013-03-06T08:00:00Z,30.2583,-88.2131,11.49,1111122 
DISL,ioos:station:DISL:KATA:1,2013-03-06T08:30:00Z,30.2583,-88.2131,10.44,1111122 
DISL,ioos:station:DISL:KATA:1,2013-03-06T09:00:00Z,30.2583,-88.2131,10.07,1111122 
DISL,ioos:station:DISL:KATA:1,2013-03-06T09:30:00Z,30.2583,-88.2131,9.36,1111122 
DISL,ioos:station:DISL:KATA:1,2013-03-06T10:00:00Z,30.2583,-88.2131,9.2,1111122 
DISL,ioos:station:DISL:KATA:1,2013-03-06T10:30:00Z,30.2583,-88.2131,8.93,1111122 
DISL,ioos:station:DISL:KATA:1,2013-03-06T11:00:00Z,30.2583,-88.2131,8.66,1111122 
DISL,ioos:station:DISL:KATA:1,2013-03-06T11:30:00Z,30.2583,-88.2131,8.35,1111122 
DISL,ioos:station:DISL:KATA:1,2013-03-06T12:00:00Z,30.2583,-88.2131,8.15,1111122 
DISL,ioos:station:DISL:KATA:1,2013-03-06T12:30:00Z,30.2583,-88.2131,7.572,1111122 
DISL,ioos:station:DISL:KATA:1,2013-03-06T13:00:00Z,30.2583,-88.2131,7.202,1111122 
DISL,ioos:station:DISL:KATA:1,2013-03-06T13:30:00Z,30.2583,-88.2131,7.063,1111122 
DISL,ioos:station:DISL:KATA:1,2013-03-06T14:00:00Z,30.2583,-88.2131,6.825,1111122 
DISL,ioos:station:DISL:KATA:1,2013-03-06T14:30:00Z,30.2583,-88.2131,7.097,1111122 
DISL,ioos:station:DISL:KATA:1,2013-03-06T15:00:00Z,30.2583,-88.2131,7.606,1111122 
DISL,ioos:station:DISL:KATA:1,2013-03-06T15:30:00Z,30.2583,-88.2131,8.08,1111122 
DISL,ioos:station:DISL:KATA:1,2013-03-06T16:00:00Z,30.2583,-88.2131,8.64,1111122 
DISL,ioos:station:DISL:KATA:1,2013-03-06T16:30:00Z,30.2583,-88.2131,9.08,1111122 
DISL,ioos:station:DISL:KATA:1,2013-03-06T17:00:00Z,30.2583,-88.2131,9.42,1111122 
DISL,ioos:station:DISL:KATA:1,2013-03-06T17:30:00Z,30.2583,-88.2131,10.14,1111122 
DISL,ioos:station:DISL:KATA:1,2013-03-06T18:00:00Z,30.2583,-88.2131,10.71,1111122 
DISL,ioos:station:DISL:KATA:1,2013-03-06T18:30:00Z,30.2583,-88.2131,11.32,1111122 
DISL,ioos:station:DISL:KATA:1,2013-03-06T19:00:00Z,30.2583,-88.2131,11.93,1111122 
DISL,ioos:station:DISL:KATA:1,2013-03-06T19:30:00Z,30.2583,-88.2131,12.33,1111122 
DISL,ioos:station:DISL:KATA:1,2013-03-06T20:00:00Z,30.2583,-88.2131,12.81,1111122 
DISL,ioos:station:DISL:KATA:1,2013-03-06T20:30:00Z,30.2583,-88.2131,13.22,1111122 
DISL,ioos:station:DISL:KATA:1,2013-03-06T21:00:00Z,30.2583,-88.2131,13.59,1111122 
DISL,ioos:station:DISL:KATA:1,2013-03-06T21:30:00Z,30.2583,-88.2131,14.02,1111122 
DISL,ioos:station:DISL:KATA:1,2013-03-06T22:00:00Z,30.2583,-88.2131,14.06,1111122 
DISL,ioos:station:DISL:KATA:1,2013-03-06T22:30:00Z,30.2583,-88.2131,14.22,1111122 
DISL,ioos:station:DISL:KATA:1,2013-03-06T23:00:00Z,30.2583,-88.2131,14.26,1111122 
DISL,ioos:station:DISL:KATA:1,2013-03-06T23:30:00Z,30.2583,-88.2131,14.16,1111122 
DISL,ioos:station:DISL:KATA:1,2013-03-07T00:00:00Z,30.2583,-88.2131,13.75,1111122 